SCP
0 0 0 0 0 0 0 0 0 0 0 0 0 0 0 0 0 0 0 0 0 0 0 0 0 0 0 0 0 0 0 0 0 0 0 0 0 0 0 0 0 0 0
0 0 0 0 0 0 0 0 0 0 0 0 0 0 0 0 0 0 0 0 0 0 0 0 0 0 0 0 0 0 0 0 0 0 0 0 0 0 0 0 0 0 0
0 0 0 0 0 0 0 0 0 0 0 0 0 0 0 0 0 0 0 0 0 0 0 0 0 0 0 0 0 0 0 0 0 0 0 0 0 0 0 0 0 0 0
0 0 0 0 0 0 0 0 0 0 0 0 0 0 0 0 0 0 0 0 0 0 0 0 0 0 0 0 0 0 0 0 0 0 0 0 0 0 0 0 0 0 0
0 0 0 0 0 0 0 0 0 0 0 0 0 0 0 0 0 0 0 0 0 0 0 0 0 0 0 0 0 0 0 0 0 0 0 0 0 0 0 0 0 0 0
0 0 0 0 0 0 0 0 0 0 0 0 0 0 0 0 0 0 0 0 0 0 0 0 0 0 0 0 0 0 0 0 0 0 0 0 0 0 0 0 0 0 0
0 0 0 0 0 0 0 0 0 0 0 0 0 0 0 0 0 0 0 0 0 0 0 0 0 0 0 0 0 0 0 0 0 0 0 0 0 0 0 0 0 0 0
0 0 0 0 0 0 0 0 0 0 0 0 0 0 0 0 0 0 0 0 0 0 0 0 0 0 0 0 0 0 0 0 0 0 0 0 0 0 0 0 0 0 0
0 0 0 0 0 0 0 0 0 0 0 0 0 0 0 0 0 0 0 0 0 0 0 0 0 0 0 0 0 0 0 0 0 0 0 0 0 0 0 0 0 0 0
0 0 0 0 0 0 0 0 0 0 0 0 0 0 0 0 0 0 0 0 0 0 0 0 0 0 0 0 0 0 0 0 0 0 0 0 0 0 0 0 0 0 0
0 0 0 0 0 0 0 0 0 0 0 0 0 0 0 0 0 0 0 0 0 0 0 0 0 0 0 0 0 0 0 0 0 0 0 0 0 0 0 0 0 0 0
0 0 0 0 0 0 0 0 0 0 0 0 0 0 0 0 0 0 0 0 0 0 0 0 0 0 0 0 0 0 0 0 0 0 0 0 0 0 0 0 0 0 0
0 0 0 0 0 0 0 0 0 0 0 0 0 0 0 0 0 0 0 0 0 0 0 0 0 0 0 0 0 0 0 0 0 0 0 0 0 0 0 0 0 0 0
0 0 0 0 0 0 0 0 0 0 0 0 0 0 0 0 0 0 0 0 0 0 0 0 0 0 0 0 0 0 0 0 0 0 0 0 0 0 0 0 0 0 0
0 0 0 0 0 0 0 0 0 0 0 0 0 0 0 0 0 0 0 0 0 0 0 0 0 0 0 0 0 0 0 0 0 0 0 0 0 0 0 0 0 0 0
0 0 0 0 0 0 0 0 0 0 0 0 0 0 0 0 0 0 0 0 0 0 0 0 0 0 0 0 0 0 0 0 0 0 0 0 0 0 0 0 0 0 0
0 0 0 0 0 0 0 0 0 0 0 0 0 0 0 0 0 0 0 0 0 0 0 0 0 0 0 0 0 0 0 0 0 0 0 0 0 0 0 0 0 0 0
0 0 0 0 0 0 0 0 0 0 0 0 0 0 0 0 0 0 0 0 0 0 0 0 0 0 0 0 0 0 0 0 0 0 0 0 0 0 0 0 0 0 0
0 0 0 0 0 0 0 0 0 0 0 0 0 0 0 0 0 0 0 0 0 0 0 0 0 0 0 0 0 0 0 0 0 0 0 0 0 0 0 0 0 0 0
0 0 0 0 0 0 0 0 0 0 0 0 0 0 0 0 0 0 0 0 0 0 0 0 0 0 0 0 0 0 0 0 0 0 0 0 0 0 0 0 0 0 0
0 0 0 0 0 0 0 0 0 0 0 0 0 0 0 0 0 0 0 0 0 0 0 0 0 0 0 0 0 0 0 0 0 0 0 0 0 0 0 0 0 0 0
0 0 0 0 0 0 0 0 0 0 0 0 0 0 0 0 0 0 0 0 0 0 0 0 0 0 0 0 0 0 0 0 0 0 0 0 0 0 0 0 0 0 0
0 0 0 0 0 0 0 0 0 0 0 0 0 0 0 0 0 0 0 0 0 0 0 0 0 0 0 0 0 0 0 0 0 0 0 0 0 0 0 0 0 0 0
0 0 0 0 0 0 0 0 0 0 0 0 0 0 0 0 0 0 0 0 0 0 0 0 0 0 0 0 0 0 0 0 0 0 0 0 0 0 0 0 0 0 0
0 0 0 0 0 0 0 0 0 0 0 0 0 0 0 0 0 0 0 0 0 0 0 0 0 0 0 0 0 0 0 0 0 0 0 0 0 0 0 0 0 0 0
0 0 0 0 0 0 0 0 0 0 0 0 0 0 0 0 0 0 0 0 0 0 0 0 0 0 0 0 0 0 0 0 0 0 0 0 0 0 0 0 0 0 0
Wind_Speed
6 6 6 5 4 4 4 4 4 4 4 4 5 5 6 6 6 6 7 9 8 8 9 11 11 11 8 7 6 6 6 7 15 16 13 12 13 14 14 10 12 12 13
6 7 6 4 4 4 4 4 4 4 4 5 5 6 7 7 7 7 9 9 8 10 12 12 13 12 11 9 7 7 7 8 12 19 16 13 15 15 15 14 15 14 10
6 6 5 5 4 4 4 4 4 4 5 5 5 6 7 7 7 7 8 7 8 10 12 13 14 14 13 9 8 8 8 11 10 15 17 14 13 13 15 16 14 10 13
6 6 5 4 4 3 3 4 4 5 5 6 6 6 7 7 8 8 7 7 8 9 11 13 14 14 13 11 11 10 10 12 12 14 15 14 14 14 12 12 13 8 10
6 6 5 3 2 2 3 4 5 5 7 6 6 7 7 7 8 10 8 9 8 10 12 13 14 19 23 19 16 12 13 12 13 14 15 15 15 13 12 11 15 14 11
6 6 4 2 2 2 3 4 5 6 6 6 7 7 8 9 18 23 17 8 7 10 13 13 14 16 19 26 28 28 25 19 17 16 16 17 18 16 14 13 15 17 18
6 5 3 1 2 3 4 5 6 6 6 7 7 7 8 10 21 23 22 12 8 9 12 13 14 15 21 14 21 25 21 26 27 20 18 18 19 17 17 18 17 18 18
5 4 2 1 2 3 4 5 6 6 6 7 7 8 8 12 21 22 23 11 8 9 11 13 14 14 16 21 17 16 15 15 20 17 14 16 17 16 17 18 18 18 15
4 3 2 2 3 4 5 6 6 6 7 7 8 8 9 11 19 22 22 8 8 9 11 13 16 16 24 30 21 18 18 14 20 27 29 27 31 31 25 15 14 15 16
4 3 1 1 3 4 5 5 5 6 7 8 8 8 8 8 17 22 23 7 9 10 11 12 19 23 28 31 21 18 17 15 15 16 17 19 17 18 25 16 13 15 16
4 1 1 2 3 4 4 4 6 6 7 7 8 7 8 11 17 22 24 11 10 12 13 12 12 27 31 32 28 14 20 23 14 13 13 12 11 10 11 11 11 13 15
2 1 2 3 4 4 5 5 6 6 7 7 7 8 6 8 14 19 25 23 22 15 14 12 15 30 32 31 22 23 30 24 11 12 12 12 11 11 11 13 14 14 14
1 1 3 4 4 4 5 6 6 5 5 6 6 7 7 6 10 22 24 26 27 17 14 24 29 30 27 17 21 28 23 12 12 13 13 12 10 11 12 12 13 13 14
1 2 3 4 5 5 4 4 5 5 6 6 6 8 8 7 7 8 9 12 18 16 13 18 23 23 20 21 19 15 10 11 13 12 13 12 11 10 11 11 12 12 11
2 3 4 4 4 5 5 5 6 5 8 10 6 6 8 9 13 25 20 14 14 16 18 9 8 10 10 11 11 10 11 12 12 11 12 12 12 12 11 10 10 11 10
2 3 3 3 4 5 6 6 11 13 19 20 19 17 13 18 26 27 28 29 29 28 18 10 11 11 12 13 13 13 13 12 12 12 12 12 12 12 12 11 10 10 10
2 3 3 3 4 5 6 7 9 10 14 17 19 21 21 24 25 26 27 28 25 23 12 10 11 12 12 12 12 13 13 13 12 11 12 12 12 11 11 11 10 9 9
3 5 5 4 4 5 6 6 7 9 9 7 11 19 23 24 24 26 26 21 14 13 9 10 11 12 12 12 12 12 12 12 11 11 12 11 11 11 11 11 10 10 10
3 3 3 3 4 5 6 6 6 7 8 9 8 11 18 20 21 22 21 10 11 11 11 11 11 12 12 12 12 12 12 12 13 12 11 12 11 11 10 10 9 13 10
3 8 8 4 4 5 5 6 6 7 8 8 9 9 10 11 8 10 9 8 9 10 11 12 12 12 12 12 12 11 12 12 12 11 11 11 10 10 10 11 9 9 7
3 6 11 7 4 5 5 6 6 7 7 8 8 12 21 11 9 10 10 10 9 10 11 12 12 12 11 11 11 12 13 12 12 12 11 11 10 9 9 8 8 7 7
3 4 4 5 5 5 6 6 6 7 7 9 8 11 20 11 8 9 10 10 9 10 11 11 11 11 11 11 12 12 12 13 12 12 12 11 9 8 8 7 7 6 5
4 5 5 5 5 10 9 6 6 7 7 8 9 10 10 10 10 10 10 10 10 11 11 11 12 12 11 11 11 11 12 13 13 14 13 11 9 8 7 7 7 6 5
5 5 5 5 5 5 6 6 6 8 8 9 10 10 10 10 11 12 11 10 11 11 11 11 12 15 18 15 12 12 12 14 15 12 12 9 9 7 7 6 6 5 4
5 4 5 5 6 6 6 7 7 8 10 11 11 10 11 11 11 11 10 10 11 12 14 14 12 13 18 22 20 16 21 26 21 11 8 7 8 7 6 6 5 4 3
5 5 5 5 5 5 6 6 8 9 9 10 10 10 11 11 11 10 10 10 11 13 14 13 15 19 22 18 19 23 27 23 18 16 9 6 6 6 6 4 5 4 4
Wind_Direction
111 101 91 79 64 66 64 46 20 7 359 349 340 331 325 320 322 321 318 312 306 308 311 308 304 302 298 294 290 287 284 287 294 299 299 300 299 299 297 286 286 283 286
108 101 97 88 66 57 50 31 13 358 345 335 329 324 320 319 318 315 313 310 313 320 315 309 307 308 303 298 292 292 293 292 291 295 297 297 295 294 293 289 294 291 291
112 108 101 82 62 47 31 13 356 340 328 322 320 316 311 309 307 306 304 308 323 315 310 309 308 305 301 297 298 295 292 293 288 291 294 295 293 292 292 291 290 287 294
109 101 90 78 63 35 13 352 336 325 316 310 306 300 299 300 302 300 301 314 307 305 307 305 303 301 300 301 298 290 292 294 293 292 294 297 296 293 292 298 298 288 292
114 104 92 73 55 19 356 336 320 310 306 297 296 297 298 302 303 309 313 311 308 308 305 301 300 302 304 305 304 304 303 300 301 300 299 301 301 304 303 301 301 301 290
115 110 104 69 24 1 335 313 302 297 294 296 299 300 302 308 315 316 316 309 306 307 306 304 301 301 304 309 310 307 307 308 308 304 303 302 303 303 302 301 301 300 297
112 112 109 61 359 338 318 307 300 299 302 307 305 306 304 306 315 316 317 318 306 302 302 304 307 308 312 303 301 307 310 307 306 303 300 300 301 302 301 299 296 294 295
121 127 122 59 336 322 308 302 304 307 308 307 306 303 301 306 316 319 319 317 297 294 299 302 304 305 305 306 306 310 305 302 301 301 295 296 299 299 296 299 300 298 292
127 118 90 27 330 310 303 305 309 311 309 304 300 301 301 306 317 319 319 305 299 299 301 305 306 304 305 312 315 309 307 304 308 307 307 306 307 308 308 305 302 299 299
115 97 53 327 300 295 299 307 311 312 303 303 303 302 302 305 316 321 322 309 309 308 306 304 307 310 311 315 314 311 311 310 310 311 309 306 303 299 303 301 300 299 299
102 83 310 295 294 296 303 303 301 296 297 301 304 307 309 315 323 326 324 322 315 315 314 313 310 313 315 316 319 316 311 316 319 314 308 304 301 299 298 295 292 291 292
115 266 288 296 302 305 299 293 293 297 302 306 311 312 312 320 326 323 322 323 323 319 314 311 309 314 318 323 325 318 320 326 318 310 307 308 309 307 303 299 294 288 281
112 305 310 314 304 298 297 299 301 301 302 308 312 314 316 315 316 319 319 320 321 319 310 311 315 320 325 326 320 322 326 320 311 310 311 310 305 299 301 302 301 296 289
359 328 321 311 304 306 304 301 302 305 307 305 306 308 308 306 304 304 306 314 319 317 310 311 320 323 324 322 321 320 315 310 315 312 310 307 305 304 307 309 310 311 308
0 334 319 313 315 313 306 301 309 297 303 312 303 300 307 311 311 319 323 321 320 315 322 322 319 321 320 318 317 316 316 318 317 314 312 312 313 313 312 312 310 314 317
347 324 318 319 318 311 309 311 312 313 319 321 321 318 314 314 319 323 326 326 325 328 333 327 322 320 319 320 320 319 319 318 318 316 313 312 313 313 313 314 315 318 323
321 312 312 315 310 309 312 313 314 317 318 320 321 323 322 321 326 328 328 328 330 333 330 319 318 319 319 318 317 316 316 316 315 314 313 312 311 311 312 314 318 323 325
314 312 310 300 308 314 311 307 307 313 317 314 319 322 324 326 328 329 329 332 328 327 320 319 318 318 317 316 316 315 315 315 315 314 312 311 310 311 312 314 318 324 327
318 305 301 304 305 300 299 301 304 307 310 313 314 319 324 325 326 327 331 327 320 322 322 319 317 316 315 314 314 314 314 313 313 312 311 310 310 311 313 316 320 327 331
317 314 316 304 294 294 297 303 306 307 309 310 312 316 318 319 322 324 325 318 320 321 320 318 316 314 314 313 313 314 314 313 312 311 310 310 310 312 316 319 323 327 328
318 313 314 313 300 299 300 299 301 303 304 306 308 314 322 325 322 319 320 322 322 320 318 316 314 313 312 313 313 312 312 310 310 309 310 310 312 316 318 318 320 323 326
312 299 297 297 296 297 303 301 303 303 305 307 311 316 322 324 316 316 318 319 317 315 315 314 312 311 312 312 313 312 310 308 308 309 309 309 313 316 316 316 319 322 325
302 296 296 296 299 311 315 304 303 305 307 310 314 317 320 318 318 318 318 319 317 316 316 314 312 310 310 310 308 306 304 302 301 300 304 309 315 315 313 313 315 322 329
294 293 298 304 306 303 302 304 307 312 316 316 316 316 316 318 318 318 317 315 316 315 314 314 310 308 310 312 310 305 299 297 298 299 304 309 312 311 311 312 314 322 332
301 306 310 308 307 306 307 309 313 316 316 314 313 315 318 317 316 315 315 315 314 314 314 314 310 311 312 312 309 306 305 311 320 327 320 314 312 313 317 322 329 338 356
311 313 309 304 302 304 308 311 309 308 308 310 313 315 315 313 313 314 315 316 318 317 314 312 311 313 313 311 309 312 317 327 341 347 342 322 324 335 341 341 349 3 19